| time (UTC) | temp F | wind direction | speed MPH | gust MPH | rain 1hr in | rain 24hr in | rain mn in | humidity % | barometer mb |
| 20260509103043 | 50 | 209 | 2.0 | 6.0 | 0.00 | 0.00 | 0.00 | 97 | 1003.8 |
| 20260509102528 | 50 | 214 | 2.0 | 6.0 | 0.00 | 0.00 | 0.00 | 97 | 1003.9 |
| 20260509102029 | 50 | 158 | 2.0 | 6.0 | 0.00 | 0.00 | 0.00 | 97 | 1004.0 |
| 20260509101543 | 50 | 172 | 2.0 | 6.0 | 0.00 | 0.00 | 0.00 | 97 | 1004.0 |
| 20260509101030 | 50 | 159 | 1.0 | 5.0 | 0.00 | 0.00 | 0.00 | 97 | 1004.1 |
| 20260509100528 | 50 | 212 | 1.0 | 5.0 | 0.00 | 0.00 | 0.00 | 97 | 1004.2 |
| 20260509100045 | 50 | 199 | 2.0 | 4.0 | 0.00 | 0.00 | 0.00 | 97 | 1004.1 |
| 20260509095528 | 50 | 141 | 1.0 | 4.0 | 0.00 | 0.00 | 0.00 | 97 | 1004.1 |
| 20260509095027 | 50 | 163 | 1.0 | 4.0 | 0.00 | 0.00 | 0.00 | 97 | 1004.2 |
| 20260509094539 | 50 | 214 | 1.0 | 4.0 | 0.00 | 0.00 | 0.00 | 97 | 1004.3 |
| 20260509094026 | 50 | 131 | 1.0 | 3.0 | 0.00 | 0.00 | 0.00 | 97 | 1004.3 |
| 20260509093530 | 50 | 205 | 0.0 | 2.0 | 0.00 | 0.00 | 0.00 | 97 | 1004.4 |
| 20260509093042 | 50 | 210 | 0.0 | 2.0 | 0.00 | 0.00 | 0.00 | 97 | 1004.3 |
| 20260509092528 | 50 | 0 | 0.0 | 3.0 | 0.00 | 0.00 | 0.00 | 97 | 1004.5 |
| 20260509092028 | 50 | 0 | 0.0 | 3.0 | 0.00 | 0.00 | 0.00 | 97 | 1004.3 |
| 20260509091546 | 50 | 191 | 1.0 | 3.0 | 0.00 | 0.00 | 0.00 | 97 | 1004.3 |
| 20260509091028 | 50 | 142 | 1.0 | 2.0 | 0.00 | 0.00 | 0.00 | 97 | 1004.3 |
| 20260509090530 | 50 | 0 | 0.0 | 1.0 | 0.00 | 0.00 | 0.00 | 97 | 1004.5 |
| 20260509090052 | 50 | 188 | 0.0 | 4.0 | 0.00 | 0.00 | 0.00 | 97 | 1004.5 |
| 20260509085528 | 50 | 203 | 0.0 | 4.0 | 0.00 | 0.00 | 0.00 | 97 | 1004.4 |
| 20260509085028 | 50 | 160 | 0.0 | 1.0 | 0.00 | 0.00 | 0.00 | 97 | 1004.6 |
| 20260509084541 | 49 | 226 | 0.0 | 1.0 | 0.00 | 0.00 | 0.00 | 97 | 1004.5 |
| 20260509084028 | 49 | 0 | 0.0 | 2.0 | 0.00 | 0.00 | 0.00 | 97 | 1004.6 |
| 20260509083527 | 49 | 238 | 0.0 | 2.0 | 0.00 | 0.00 | 0.00 | 97 | 1004.6 |
| 20260509083044 | 49 | 195 | 0.0 | 1.0 | 0.00 | 0.00 | 0.00 | 97 | 1004.7 |
| 20260509082525 | 49 | 148 | 0.0 | 1.0 | 0.00 | 0.00 | 0.00 | 96 | 1004.5 |
| 20260509082026 | 49 | 0 | 0.0 | 2.0 | 0.00 | 0.00 | 0.00 | 97 | 1004.5 |
| 20260509081550 | 49 | 0 | 0.0 | 2.0 | 0.00 | 0.00 | 0.00 | 96 | 1004.5 |
| 20260509081029 | 49 | 146 | 0.0 | 1.0 | 0.00 | 0.00 | 0.00 | 96 | 1004.6 |
| 20260509080529 | 49 | 0 | 0.0 | 2.0 | 0.00 | 0.00 | 0.00 | 96 | 1004.7 |
| 20260509080040 | 49 | 0 | 0.0 | 2.0 | 0.00 | 0.00 | 0.00 | 96 | 1004.5 |
| 20260509075528 | 49 | 210 | 0.0 | 4.0 | 0.00 | 0.00 | 0.00 | 96 | 1004.4 |
| 20260509075028 | 49 | 186 | 0.0 | 4.0 | 0.00 | 0.00 | 0.00 | 96 | 1004.6 |
| 20260509074538 | 49 | 135 | 1.0 | 2.0 | 0.00 | 0.00 | 0.00 | 96 | 1004.5 |
| 20260509074028 | 49 | 0 | 0.0 | 1.0 | 0.00 | 0.00 | 0.00 | 95 | 1004.6 |
| 20260509073528 | 49 | 0 | 0.0 | 1.0 | 0.00 | 0.00 | 0.00 | 95 | 1004.7 |
| 20260509073046 | 49 | 0 | 0.0 | 1.0 | 0.00 | 0.00 | 0.00 | 95 | 1004.8 |
| 20260509072526 | 49 | 0 | 0.0 | 2.0 | 0.00 | 0.00 | 0.00 | 95 | 1004.8 |
| 20260509072025 | 49 | 158 | 0.0 | 2.0 | 0.00 | 0.00 | 0.00 | 95 | 1004.8 |
| 20260509071550 | 49 | 153 | 0.0 | 1.0 | 0.00 | 0.00 | 0.00 | 95 | 1004.9 |
| 20260509071204 | 49 | 0 | 0.0 | 0.0 | 0.00 | 0.00 | 0.00 | 94 | 1005.0 |
| 20260509070530 | 49 | 0 | 0.0 | 0.0 | 0.00 | 0.00 | 0.00 | 94 | 1005.2 |
| 20260509070051 | 49 | 0 | 0.0 | 0.0 | 0.00 | 0.00 | 0.00 | 94 | 1005.2 |
| 20260509065528 | 49 | 162 | 0.0 | 0.0 | 0.00 | 0.00 | 0.00 | 94 | 1005.3 |
| 20260509065031 | 49 | 0 | 0.0 | 0.0 | 0.00 | 0.00 | 0.00 | 94 | 1005.3 |
| 20260509064542 | 50 | 0 | 0.0 | 0.0 | 0.00 | 0.00 | 0.00 | 93 | 1005.3 |
| 20260509064028 | 50 | 0 | 0.0 | 0.0 | 0.00 | 0.00 | 0.00 | 93 | 1005.2 |
| 20260509063528 | 50 | 162 | 0.0 | 0.0 | 0.00 | 0.00 | 0.00 | 93 | 1005.4 |
| 20260509063102 | 50 | 0 | 0.0 | 0.0 | 0.00 | 0.00 | 0.00 | 93 | 1005.5 |
| 20260509062528 | 50 | 0 | 0.0 | 1.0 | 0.00 | 0.00 | 0.00 | 92 | 1005.4 |
| 20260509062030 | 51 | 0 | 0.0 | 1.0 | 0.00 | 0.00 | 0.00 | 92 | 1005.5 |
| 20260509061607 | 51 | 0 | 0.0 | 1.0 | 0.00 | 0.00 | 0.00 | 91 | 1005.4 |
| 20260509061033 | 51 | 0 | 0.0 | 1.0 | 0.00 | 0.00 | 0.00 | 91 | 1005.5 |
| 20260509060532 | 52 | 0 | 0.0 | 3.0 | 0.00 | 0.00 | 0.00 | 90 | 1005.4 |
| 20260509060056 | 52 | 0 | 0.0 | 3.0 | 0.00 | 0.00 | 0.00 | 91 | 1005.4 |
| 20260509055531 | 52 | 129 | 1.0 | 3.0 | 0.00 | 0.00 | 0.00 | 91 | 1005.6 |
| 20260509055029 | 52 | 158 | 1.0 | 3.0 | 0.00 | 0.00 | 0.00 | 91 | 1005.7 |
| 20260509054543 | 52 | 160 | 0.0 | 2.0 | 0.00 | 0.00 | 0.00 | 91 | 1005.8 |
| 20260509054029 | 52 | 0 | 0.0 | 2.0 | 0.00 | 0.00 | 0.00 | 90 | 1005.9 |
| 20260509053531 | 53 | 228 | 0.0 | 2.0 | 0.00 | 0.00 | 0.00 | 90 | 1005.9 |
| 20260509053043 | 53 | 0 | 0.0 | 2.0 | 0.00 | 0.00 | 0.00 | 90 | 1005.9 |
| 20260509052530 | 53 | 0 | 0.0 | 2.0 | 0.00 | 0.00 | 0.00 | 90 | 1005.9 |
| 20260509052028 | 53 | 148 | 1.0 | 3.0 | 0.00 | 0.00 | 0.00 | 89 | 1005.8 |
| 20260509051543 | 53 | 255 | 1.0 | 3.0 | 0.00 | 0.00 | 0.00 | 89 | 1005.6 |
| 20260509051028 | 54 | 217 | 1.0 | 7.0 | 0.00 | 0.00 | 0.00 | 89 | 1005.6 |
| 20260509050530 | 54 | 155 | 2.0 | 7.0 | 0.00 | 0.00 | 0.00 | 89 | 1005.7 |
| 20260509050042 | 54 | 166 | 0.0 | 4.0 | 0.00 | 0.00 | 0.00 | 89 | 1005.8 |
| 20260509045528 | 54 | 136 | 1.0 | 4.0 | 0.00 | 0.00 | 0.00 | 89 | 1005.8 |
| 20260509045030 | 54 | 250 | 1.0 | 4.0 | 0.00 | 0.00 | 0.00 | 89 | 1005.7 |
| 20260509044536 | 54 | 231 | 2.0 | 5.0 | 0.00 | 0.00 | 0.00 | 89 | 1005.7 |
| 20260509044033 | 54 | 158 | 1.0 | 5.0 | 0.00 | 0.00 | 0.00 | 89 | 1005.8 |
| 20260509043529 | 54 | 220 | 1.0 | 5.0 | 0.00 | 0.00 | 0.00 | 88 | 1006.0 |
| 20260509043043 | 54 | 234 | 1.0 | 5.0 | 0.00 | 0.00 | 0.00 | 88 | 1006.0 |
| 20260509042529 | 54 | 165 | 1.0 | 4.0 | 0.00 | 0.00 | 0.00 | 88 | 1005.9 |
| 20260509042029 | 54 | 198 | 1.0 | 5.0 | 0.00 | 0.00 | 0.00 | 88 | 1005.9 |
| 20260509041540 | 55 | 219 | 1.0 | 5.0 | 0.00 | 0.00 | 0.00 | 87 | 1005.8 |
| 20260509041028 | 55 | 190 | 1.0 | 8.0 | 0.00 | 0.00 | 0.00 | 87 | 1005.8 |
| 20260509040532 | 55 | 139 | 1.0 | 8.0 | 0.00 | 0.00 | 0.00 | 86 | 1005.8 |
| 20260509040047 | 55 | 166 | 1.0 | 7.0 | 0.00 | 0.00 | 0.00 | 86 | 1005.9 |
| 20260509035532 | 56 | 158 | 1.0 | 7.0 | 0.00 | 0.00 | 0.00 | 85 | 1006.1 |
| 20260509035030 | 56 | 145 | 2.0 | 7.0 | 0.00 | 0.00 | 0.00 | 85 | 1006.0 |
| 20260509034542 | 56 | 199 | 2.0 | 7.0 | 0.00 | 0.00 | 0.00 | 85 | 1006.0 |
| 20260509034030 | 56 | 214 | 2.0 | 5.0 | 0.00 | 0.00 | 0.00 | 84 | 1006.1 |
| 20260509033532 | 56 | 188 | 1.0 | 5.0 | 0.00 | 0.00 | 0.00 | 83 | 1006.1 |
| 20260509033043 | 56 | 143 | 2.0 | 5.0 | 0.00 | 0.00 | 0.00 | 82 | 1006.2 |
| 20260509032530 | 56 | 0 | 1.0 | 5.0 | 0.00 | 0.00 | 0.00 | 81 | 1006.3 |
| 20260509032030 | 57 | 164 | 1.0 | 5.0 | 0.00 | 0.00 | 0.00 | 80 | 1006.2 |
| 20260509031544 | 57 | 160 | 1.0 | 7.0 | 0.00 | 0.00 | 0.00 | 80 | 1006.3 |
| 20260509031030 | 57 | 171 | 2.0 | 7.0 | 0.00 | 0.00 | 0.00 | 79 | 1006.1 |
| 20260509030530 | 57 | 193 | 2.0 | 6.0 | 0.00 | 0.00 | 0.00 | 78 | 1006.2 |
| 20260509030050 | 57 | 156 | 2.0 | 6.0 | 0.00 | 0.00 | 0.00 | 78 | 1006.2 |
| 20260509025533 | 58 | 141 | 2.0 | 6.0 | 0.00 | 0.00 | 0.00 | 77 | 1006.1 |
| 20260509025033 | 58 | 176 | 1.0 | 6.0 | 0.00 | 0.00 | 0.00 | 76 | 1006.1 |
| 20260509024540 | 58 | 167 | 3.0 | 9.0 | 0.00 | 0.00 | 0.00 | 76 | 1006.3 |
| 20260509024030 | 58 | 200 | 2.0 | 9.0 | 0.00 | 0.00 | 0.00 | 76 | 1006.1 |
| 20260509023531 | 58 | 207 | 2.0 | 9.0 | 0.00 | 0.00 | 0.00 | 76 | 1006.2 |
| 20260509023040 | 57 | 200 | 1.0 | 4.0 | 0.00 | 0.00 | 0.00 | 77 | 1005.9 |
| 20260509022533 | 58 | 163 | 1.0 | 4.0 | 0.00 | 0.00 | 0.00 | 78 | 1006.1 |
| 20260509022031 | 58 | 193 | 1.0 | 3.0 | 0.00 | 0.00 | 0.00 | 77 | 1006.1 |
| 20260509021537 | 58 | 193 | 1.0 | 5.0 | 0.00 | 0.00 | 0.00 | 77 | 1006.0 |
| 20260509021029 | 58 | 155 | 2.0 | 5.0 | 0.00 | 0.00 | 0.00 | 77 | 1006.0 |
| 20260509020530 | 59 | 159 | 1.0 | 5.0 | 0.00 | 0.00 | 0.00 | 77 | 1006.0 |
| 20260509020050 | 59 | 226 | 1.0 | 4.0 | 0.00 | 0.00 | 0.00 | 76 | 1006.0 |
| 20260509015530 | 59 | 222 | 1.0 | 6.0 | 0.00 | 0.00 | 0.00 | 76 | 1006.0 |
| 20260509015028 | 59 | 225 | 1.0 | 6.0 | 0.00 | 0.00 | 0.00 | 75 | 1005.9 |
| 20260509014548 | 59 | 203 | 2.0 | 6.0 | 0.00 | 0.00 | 0.00 | 74 | 1005.7 |
| 20260509014029 | 60 | 198 | 0.0 | 4.0 | 0.00 | 0.00 | 0.00 | 71 | 1005.7 |
| 20260509013529 | 60 | 224 | 1.0 | 4.0 | 0.00 | 0.00 | 0.00 | 69 | 1005.7 |
| 20260509013042 | 60 | 190 | 1.0 | 4.0 | 0.00 | 0.00 | 0.00 | 66 | 1005.7 |
| 20260509012526 | 61 | 163 | 1.0 | 3.0 | 0.00 | 0.00 | 0.00 | 63 | 1005.7 |
| 20260509012030 | 61 | 0 | 1.0 | 3.0 | 0.00 | 0.00 | 0.00 | 62 | 1005.7 |
| 20260509011544 | 61 | 253 | 0.0 | 2.0 | 0.00 | 0.00 | 0.00 | 60 | 1005.6 |
| 20260509011030 | 62 | 0 | 0.0 | 4.0 | 0.00 | 0.00 | 0.00 | 60 | 1005.6 |
| 20260509010530 | 62 | 246 | 1.0 | 4.0 | 0.00 | 0.00 | 0.00 | 59 | 1005.6 |
| 20260509010045 | 62 | 270 | 0.0 | 5.0 | 0.00 | 0.00 | 0.00 | 59 | 1005.6 |
| 20260509005530 | 62 | 229 | 1.0 | 5.0 | 0.00 | 0.00 | 0.00 | 59 | 1005.5 |
| 20260509005030 | 63 | 243 | 1.0 | 4.0 | 0.00 | 0.00 | 0.00 | 59 | 1005.6 |
| 20260509004544 | 63 | 238 | 1.0 | 4.0 | 0.00 | 0.00 | 0.00 | 59 | 1005.7 |
| 20260509004029 | 63 | 229 | 1.0 | 4.0 | 0.00 | 0.00 | 0.00 | 59 | 1005.8 |
| 20260509003531 | 63 | 227 | 0.0 | 5.0 | 0.00 | 0.00 | 0.00 | 60 | 1005.7 |
| 20260509003045 | 63 | 250 | 2.0 | 5.0 | 0.00 | 0.00 | 0.00 | 59 | 1005.7 |
| 20260509002528 | 64 | 236 | 2.0 | 4.0 | 0.00 | 0.00 | 0.00 | 58 | 1005.8 |
| 20260509002029 | 64 | 266 | 1.0 | 5.0 | 0.00 | 0.00 | 0.00 | 58 | 1005.8 |
| 20260509001542 | 64 | 232 | 2.0 | 5.0 | 0.00 | 0.00 | 0.00 | 57 | 1005.8 |
| 20260509001030 | 64 | 212 | 2.0 | 5.0 | 0.00 | 0.00 | 0.00 | 56 | 1005.5 |
| 20260509000530 | 64 | 210 | 1.0 | 3.0 | 0.00 | 0.00 | 0.00 | 55 | 1005.8 |
| 20260509000041 | 64 | 165 | 0.0 | 4.0 | 0.00 | 0.00 | 0.00 | 55 | 1005.7 |
| 20260508235529 | 65 | 161 | 1.0 | 4.0 | 0.00 | 0.00 | 0.00 | 54 | 1005.8 |
| 20260508235031 | 65 | 207 | 0.0 | 7.0 | 0.00 | 0.00 | 0.00 | 53 | 1005.7 |
| 20260508234549 | 65 | 231 | 2.0 | 7.0 | 0.00 | 0.00 | 0.00 | 53 | 1005.8 |
| 20260508234029 | 66 | 217 | 1.0 | 7.0 | 0.00 | 0.00 | 0.00 | 52 | 1005.8 |
| 20260508233531 | 66 | 207 | 0.0 | 8.0 | 0.00 | 0.00 | 0.00 | 51 | 1005.6 |
| 20260508233047 | 66 | 234 | 2.0 | 8.0 | 0.00 | 0.00 | 0.00 | 51 | 1005.7 |
| 20260508232530 | 66 | 337 | 1.0 | 5.0 | 0.00 | 0.00 | 0.00 | 51 | 1005.8 |
| 20260508232029 | 66 | 197 | 2.0 | 6.0 | 0.00 | 0.00 | 0.00 | 49 | 1005.7 |
| 20260508231550 | 66 | 208 | 1.0 | 6.0 | 0.00 | 0.00 | 0.00 | 51 | 1005.8 |
| 20260508231029 | 66 | 199 | 3.0 | 6.0 | 0.00 | 0.00 | 0.00 | 50 | 1005.8 |
| 20260508230529 | 66 | 175 | 0.0 | 4.0 | 0.00 | 0.00 | 0.00 | 53 | 1005.8 |
| 20260508230045 | 66 | 247 | 1.0 | 5.0 | 0.00 | 0.00 | 0.00 | 51 | 1005.7 |
| 20260508225529 | 66 | 43 | 2.0 | 5.0 | 0.00 | 0.00 | 0.00 | 50 | 1005.7 |
| 20260508225030 | 66 | 284 | 2.0 | 5.0 | 0.00 | 0.00 | 0.00 | 52 | 1005.8 |
| 20260508224550 | 66 | 246 | 1.0 | 5.0 | 0.00 | 0.00 | 0.00 | 55 | 1005.9 |
| 20260508224030 | 65 | 163 | 1.0 | 3.0 | 0.00 | 0.00 | 0.00 | 58 | 1005.9 |
| 20260508223526 | 65 | 213 | 1.0 | 7.0 | 0.00 | 0.00 | 0.00 | 58 | 1005.9 |
| 20260508223044 | 66 | 207 | 3.0 | 7.0 | 0.00 | 0.00 | 0.00 | 56 | 1005.8 |
| 20260508222530 | 66 | 172 | 1.0 | 6.0 | 0.00 | 0.00 | 0.00 | 57 | 1005.9 |
| 20260508222029 | 66 | 165 | 1.0 | 6.0 | 0.00 | 0.00 | 0.00 | 56 | 1006.0 |
| 20260508221541 | 66 | 134 | 2.0 | 6.0 | 0.00 | 0.00 | 0.00 | 57 | 1006.1 |
| 20260508221030 | 66 | 155 | 1.0 | 5.0 | 0.00 | 0.00 | 0.00 | 55 | 1006.1 |
| 20260508220530 | 66 | 162 | 2.0 | 5.0 | 0.00 | 0.00 | 0.00 | 54 | 1006.0 |
| 20260508220046 | 67 | 174 | 0.0 | 3.0 | 0.00 | 0.00 | 0.00 | 52 | 1006.1 |
| 20260508215529 | 67 | 226 | 1.0 | 4.0 | 0.00 | 0.00 | 0.00 | 51 | 1006.1 |
| 20260508215029 | 67 | 157 | 1.0 | 4.0 | 0.00 | 0.00 | 0.00 | 52 | 1006.1 |
| 20260508214541 | 67 | 213 | 1.0 | 7.0 | 0.00 | 0.00 | 0.00 | 52 | 1006.3 |
| 20260508214030 | 68 | 0 | 0.0 | 7.0 | 0.00 | 0.00 | 0.00 | 52 | 1006.2 |
| 20260508213529 | 68 | 180 | 3.0 | 14.0 | 0.00 | 0.00 | 0.00 | 52 | 1006.4 |
| 20260508213036 | 68 | 195 | 4.0 | 14.0 | 0.00 | 0.00 | 0.00 | 54 | 1006.2 |
| 20260508212528 | 67 | 202 | 2.0 | 4.0 | 0.00 | 0.00 | 0.00 | 53 | 1006.2 |
| 20260508212029 | 68 | 158 | 1.0 | 6.0 | 0.00 | 0.00 | 0.00 | 53 | 1006.4 |
| 20260508211541 | 68 | 290 | 2.0 | 6.0 | 0.00 | 0.00 | 0.00 | 52 | 1006.4 |
| 20260508211030 | 69 | 169 | 3.0 | 6.0 | 0.00 | 0.00 | 0.00 | 54 | 1006.5 |
| 20260508210530 | 68 | 214 | 2.0 | 7.0 | 0.00 | 0.00 | 0.00 | 60 | 1006.5 |
| 20260508210042 | 68 | 141 | 3.0 | 7.0 | 0.00 | 0.00 | 0.00 | 59 | 1006.5 |
| 20260508205529 | 68 | 158 | 3.0 | 5.0 | 0.00 | 0.00 | 0.00 | 58 | 1006.6 |
| 20260508205029 | 67 | 236 | 3.0 | 5.0 | 0.00 | 0.00 | 0.00 | 57 | 1006.6 |
| 20260508204544 | 66 | 195 | 2.0 | 3.0 | 0.00 | 0.00 | 0.00 | 60 | 1006.5 |
| 20260508204031 | 65 | 191 | 1.0 | 4.0 | 0.00 | 0.00 | 0.00 | 58 | 1006.6 |
| 20260508203529 | 65 | 204 | 1.0 | 4.0 | 0.00 | 0.00 | 0.00 | 58 | 1006.7 |
| 20260508203043 | 66 | 122 | 2.0 | 4.0 | 0.00 | 0.00 | 0.00 | 58 | 1006.8 |
| 20260508202529 | 66 | 248 | 1.0 | 4.0 | 0.00 | 0.00 | 0.00 | 59 | 1006.8 |
| 20260508202030 | 67 | 215 | 2.0 | 6.0 | 0.00 | 0.00 | 0.00 | 59 | 1007.0 |
| 20260508201539 | 67 | 176 | 2.0 | 7.0 | 0.00 | 0.00 | 0.00 | 56 | 1007.0 |
| 20260508201029 | 68 | 153 | 3.0 | 7.0 | 0.00 | 0.00 | 0.00 | 57 | 1007.1 |
| 20260508200529 | 68 | 238 | 3.0 | 7.0 | 0.00 | 0.00 | 0.00 | 57 | 1007.2 |
| 20260508200035 | 68 | 240 | 3.0 | 6.0 | 0.00 | 0.00 | 0.00 | 56 | 1007.2 |
| 20260508195529 | 69 | 152 | 1.0 | 5.0 | 0.00 | 0.00 | 0.00 | 57 | 1007.4 |
| 20260508195029 | 69 | 162 | 2.0 | 6.0 | 0.00 | 0.00 | 0.00 | 56 | 1007.5 |
| 20260508194541 | 69 | 0 | 1.0 | 6.0 | 0.00 | 0.00 | 0.00 | 55 | 1007.4 |
| 20260508194029 | 68 | 206 | 2.0 | 6.0 | 0.00 | 0.00 | 0.00 | 53 | 1007.5 |
| 20260508193531 | 68 | 256 | 2.0 | 5.0 | 0.00 | 0.00 | 0.00 | 54 | 1007.8 |
| 20260508193043 | 68 | 151 | 2.0 | 7.0 | 0.00 | 0.00 | 0.00 | 55 | 1007.7 |
| 20260508192529 | 68 | 340 | 3.0 | 7.0 | 0.00 | 0.00 | 0.00 | 53 | 1007.8 |
| 20260508192030 | 68 | 231 | 3.0 | 7.0 | 0.00 | 0.00 | 0.00 | 57 | 1007.7 |
| 20260508191542 | 68 | 203 | 1.0 | 6.0 | 0.00 | 0.00 | 0.00 | 57 | 1007.7 |
| 20260508191029 | 68 | 145 | 3.0 | 6.0 | 0.00 | 0.00 | 0.00 | 58 | 1007.8 |
| 20260508190530 | 67 | 216 | 2.0 | 5.0 | 0.00 | 0.00 | 0.00 | 56 | 1007.8 |
| 20260508190044 | 68 | 113 | 2.0 | 5.0 | 0.00 | 0.00 | 0.00 | 57 | 1007.9 |
| 20260508185530 | 67 | 116 | 2.0 | 5.0 | 0.00 | 0.00 | 0.00 | 60 | 1008.1 |
| 20260508185057 | 66 | 88 | 1.0 | 6.0 | 0.00 | 0.00 | 0.00 | 59 | 1008.0 |
| 20260508184542 | 66 | 144 | 1.0 | 6.0 | 0.00 | 0.00 | 0.00 | 59 | 1008.1 |
| 20260508184029 | 67 | 265 | 2.0 | 4.0 | 0.00 | 0.00 | 0.00 | 59 | 1008.2 |
| 20260508183529 | 67 | 181 | 1.0 | 5.0 | 0.00 | 0.00 | 0.00 | 58 | 1008.3 |
| 20260508183042 | 67 | 333 | 3.0 | 6.0 | 0.00 | 0.00 | 0.00 | 57 | 1008.3 |
| 20260508182530 | 68 | 156 | 2.0 | 7.0 | 0.00 | 0.00 | 0.00 | 59 | 1008.3 |
| 20260508182032 | 68 | 158 | 3.0 | 7.0 | 0.00 | 0.00 | 0.00 | 58 | 1008.3 |
| 20260508181553 | 68 | 214 | 1.0 | 5.0 | 0.00 | 0.00 | 0.00 | 62 | 1008.4 |
| 20260508181031 | 68 | 224 | 2.0 | 5.0 | 0.00 | 0.00 | 0.00 | 60 | 1008.6 |
| 20260508180529 | 67 | 148 | 2.0 | 5.0 | 0.00 | 0.00 | 0.00 | 60 | 1008.6 |
| 20260508180043 | 66 | 111 | 1.0 | 4.0 | 0.00 | 0.00 | 0.00 | 62 | 1008.5 |
| 20260508175529 | 66 | 127 | 1.0 | 4.0 | 0.00 | 0.00 | 0.00 | 64 | 1008.7 |
| 20260508175029 | 65 | 0 | 1.0 | 4.0 | 0.00 | 0.00 | 0.00 | 63 | 1008.8 |
| 20260508174551 | 66 | 150 | 2.0 | 4.0 | 0.00 | 0.00 | 0.00 | 63 | 1008.8 |
| 20260508174029 | 67 | 113 | 1.0 | 2.0 | 0.00 | 0.00 | 0.00 | 63 | 1008.9 |
| 20260508173530 | 66 | 214 | 0.0 | 3.0 | 0.00 | 0.00 | 0.00 | 62 | 1009.0 |
| 20260508173045 | 66 | 0 | 1.0 | 7.0 | 0.00 | 0.00 | 0.00 | 62 | 1009.0 |
| 20260508172531 | 66 | 202 | 1.0 | 7.0 | 0.00 | 0.00 | 0.00 | 64 | 1009.2 |
| 20260508172031 | 66 | 206 | 3.0 | 7.0 | 0.00 | 0.00 | 0.00 | 64 | 1009.2 |
| 20260508171545 | 66 | 144 | 1.0 | 4.0 | 0.00 | 0.00 | 0.00 | 65 | 1009.2 |
| 20260508171031 | 66 | 240 | 2.0 | 5.0 | 0.00 | 0.00 | 0.00 | 64 | 1009.4 |
| 20260508170530 | 66 | 173 | 2.0 | 5.0 | 0.00 | 0.00 | 0.00 | 67 | 1009.6 |
| 20260508170041 | 66 | 228 | 2.0 | 5.0 | 0.00 | 0.00 | 0.00 | 67 | 1009.5 |
| 20260508165529 | 65 | 212 | 2.0 | 5.0 | 0.00 | 0.00 | 0.00 | 67 | 1009.4 |
| 20260508165026 | 65 | 219 | 3.0 | 5.0 | 0.00 | 0.00 | 0.00 | 69 | 1009.6 |
| 20260508164540 | 65 | 7 | 1.0 | 5.0 | 0.00 | 0.00 | 0.00 | 70 | 1009.5 |
| 20260508164029 | 64 | 116 | 1.0 | 5.0 | 0.00 | 0.00 | 0.00 | 69 | 1009.8 |
| 20260508163529 | 63 | 168 | 2.0 | 6.0 | 0.00 | 0.00 | 0.00 | 71 | 1009.7 |
| 20260508163036 | 63 | 228 | 2.0 | 6.0 | 0.00 | 0.00 | 0.00 | 73 | 1009.9 |
| 20260508162529 | 63 | 148 | 2.0 | 4.0 | 0.00 | 0.00 | 0.00 | 73 | 1010.0 |
| 20260508162028 | 62 | 185 | 2.0 | 4.0 | 0.00 | 0.00 | 0.00 | 73 | 1010.1 |
| 20260508161542 | 62 | 143 | 1.0 | 3.0 | 0.00 | 0.00 | 0.00 | 74 | 1010.2 |
| 20260508161029 | 62 | 241 | 1.0 | 3.0 | 0.00 | 0.00 | 0.00 | 73 | 1010.1 |
| 20260508160531 | 62 | 207 | 1.0 | 5.0 | 0.00 | 0.00 | 0.00 | 73 | 1010.3 |
| 20260508160046 | 62 | 191 | 1.0 | 5.0 | 0.00 | 0.00 | 0.00 | 72 | 1010.2 |
| 20260508155529 | 62 | 179 | 1.0 | 5.0 | 0.00 | 0.00 | 0.00 | 73 | 1010.1 |
| 20260508155026 | 62 | 165 | 2.0 | 5.0 | 0.00 | 0.00 | 0.00 | 72 | 1010.4 |
| 20260508154543 | 62 | 223 | 0.0 | 4.0 | 0.00 | 0.00 | 0.00 | 72 | 1010.2 |
| 20260508154029 | 62 | 248 | 2.0 | 4.0 | 0.00 | 0.00 | 0.00 | 71 | 1010.3 |
| 20260508153529 | 62 | 131 | 1.0 | 4.0 | 0.00 | 0.00 | 0.00 | 74 | 1010.3 |
| 20260508153042 | 61 | 195 | 2.0 | 4.0 | 0.00 | 0.00 | 0.00 | 75 | 1010.5 |
| 20260508152529 | 62 | 228 | 1.0 | 4.0 | 0.00 | 0.00 | 0.00 | 74 | 1010.2 |
| 20260508152030 | 61 | 195 | 1.0 | 4.0 | 0.00 | 0.00 | 0.00 | 74 | 1010.5 |
| 20260508151544 | 61 | 240 | 1.0 | 3.0 | 0.00 | 0.00 | 0.00 | 75 | 1010.4 |
| 20260508151029 | 61 | 216 | 1.0 | 3.0 | 0.00 | 0.00 | 0.00 | 76 | 1010.6 |
| 20260508150532 | 60 | 209 | 1.0 | 3.0 | 0.00 | 0.00 | 0.00 | 77 | 1010.6 |
| 20260508150042 | 60 | 206 | 1.0 | 4.0 | 0.00 | 0.00 | 0.00 | 78 | 1010.6 |
| 20260508145530 | 60 | 259 | 1.0 | 4.0 | 0.00 | 0.00 | 0.00 | 75 | 1010.6 |
| 20260508145032 | 60 | 165 | 2.0 | 4.0 | 0.00 | 0.00 | 0.00 | 77 | 1010.5 |
| 20260508144545 | 60 | 128 | 1.0 | 4.0 | 0.00 | 0.00 | 0.00 | 77 | 1010.8 |
| 20260508144030 | 60 | 170 | 1.0 | 6.0 | 0.00 | 0.00 | 0.00 | 77 | 1010.7 |
| 20260508143531 | 60 | 155 | 1.0 | 6.0 | 0.00 | 0.00 | 0.00 | 76 | 1010.7 |
| 20260508143040 | 60 | 174 | 3.0 | 6.0 | 0.00 | 0.00 | 0.00 | 76 | 1010.7 |
| 20260508142529 | 61 | 156 | 2.0 | 5.0 | 0.00 | 0.00 | 0.00 | 78 | 1010.8 |
| 20260508142029 | 60 | 174 | 1.0 | 5.0 | 0.00 | 0.00 | 0.00 | 79 | 1010.8 |
| 20260508141608 | 60 | 126 | 1.0 | 4.0 | 0.00 | 0.00 | 0.00 | 79 | 1010.7 |
| 20260508141029 | 60 | 196 | 1.0 | 4.0 | 0.00 | 0.00 | 0.00 | 79 | 1010.6 |
| 20260508140530 | 60 | 236 | 1.0 | 4.0 | 0.00 | 0.00 | 0.00 | 79 | 1010.7 |
| 20260508140037 | 59 | 224 | 1.0 | 4.0 | 0.00 | 0.00 | 0.00 | 81 | 1010.7 |
| 20260508135529 | 58 | 158 | 2.0 | 4.0 | 0.00 | 0.00 | 0.00 | 82 | 1010.7 |
| 20260508135028 | 58 | 163 | 0.0 | 4.0 | 0.00 | 0.00 | 0.00 | 82 | 1010.8 |
| 20260508134554 | 57 | 148 | 1.0 | 4.0 | 0.00 | 0.00 | 0.00 | 84 | 1010.8 |
| 20260508134028 | 56 | 202 | 1.0 | 5.0 | 0.00 | 0.00 | 0.00 | 85 | 1010.8 |
| 20260508133530 | 56 | 182 | 2.0 | 5.0 | 0.00 | 0.00 | 0.00 | 84 | 1010.9 |
| 20260508133044 | 56 | 169 | 2.0 | 5.0 | 0.00 | 0.00 | 0.00 | 84 | 1010.9 |
| 20260508132529 | 56 | 141 | 1.0 | 4.0 | 0.00 | 0.00 | 0.00 | 84 | 1011.0 |
| 20260508132029 | 56 | 224 | 1.0 | 4.0 | 0.00 | 0.00 | 0.00 | 85 | 1011.0 |
| 20260508131547 | 55 | 206 | 1.0 | 4.0 | 0.00 | 0.00 | 0.00 | 84 | 1010.8 |
| 20260508131028 | 55 | 160 | 1.0 | 3.0 | 0.00 | 0.00 | 0.00 | 84 | 1010.8 |
| 20260508130530 | 55 | 156 | 0.0 | 1.0 | 0.00 | 0.00 | 0.00 | 86 | 1010.9 |
| 20260508130046 | 53 | 172 | 0.0 | 3.0 | 0.00 | 0.00 | 0.00 | 87 | 1010.8 |
| 20260508125526 | 53 | 202 | 1.0 | 3.0 | 0.00 | 0.00 | 0.00 | 85 | 1010.7 |
| 20260508125029 | 53 | 120 | 1.0 | 3.0 | 0.00 | 0.00 | 0.00 | 86 | 1010.8 |
| 20260508124545 | 52 | 105 | 0.0 | 2.0 | 0.00 | 0.00 | 0.00 | 87 | 1010.7 |
| 20260508124030 | 51 | 0 | 0.0 | 2.0 | 0.00 | 0.00 | 0.00 | 89 | 1010.8 |
| 20260508123529 | 50 | 94 | 0.0 | 2.0 | 0.00 | 0.00 | 0.00 | 91 | 1010.9 |
| 20260508123047 | 49 | 0 | 0.0 | 1.0 | 0.00 | 0.00 | 0.00 | 93 | 1010.8 |
| 20260508122528 | 49 | 0 | 0.0 | 1.0 | 0.00 | 0.00 | 0.00 | 93 | 1010.7 |
| 20260508122026 | 48 | 0 | 0.0 | 0.0 | 0.00 | 0.00 | 0.00 | 93 | 1010.8 |
| 20260508121541 | 48 | 0 | 0.0 | 1.0 | 0.00 | 0.00 | 0.00 | 93 | 1010.6 |
| 20260508121027 | 48 | 0 | 0.0 | 1.0 | 0.00 | 0.00 | 0.00 | 93 | 1010.7 |
| 20260508120530 | 48 | 0 | 0.0 | 1.0 | 0.00 | 0.00 | 0.00 | 93 | 1010.7 |
| 20260508120043 | 48 | 0 | 0.0 | 1.0 | 0.00 | 0.00 | 0.00 | 93 | 1010.7 |
| 20260508115529 | 48 | 0 | 0.0 | 0.0 | 0.00 | 0.00 | 0.00 | 93 | 1010.6 |
| 20260508115028 | 47 | 0 | 0.0 | 0.0 | 0.00 | 0.00 | 0.00 | 93 | 1010.6 |
| 20260508114541 | 47 | 0 | 0.0 | 0.0 | 0.00 | 0.00 | 0.00 | 93 | 1010.7 |
| 20260508114029 | 47 | 0 | 0.0 | 0.0 | 0.00 | 0.00 | 0.00 | 93 | 1010.7 |
| 20260508113529 | 47 | 0 | 0.0 | 0.0 | 0.00 | 0.00 | 0.00 | 93 | 1010.5 |
| 20260508113052 | 47 | 0 | 0.0 | 2.0 | 0.00 | 0.00 | 0.00 | 93 | 1010.7 |
| 20260508112526 | 47 | 0 | 0.0 | 2.0 | 0.00 | 0.00 | 0.00 | 93 | 1010.6 |
| 20260508112026 | 46 | 348 | 0.0 | 2.0 | 0.00 | 0.00 | 0.00 | 93 | 1010.5 |
| 20260508111540 | 46 | 0 | 0.0 | 1.0 | 0.00 | 0.00 | 0.00 | 93 | 1010.4 |
| 20260508111030 | 46 | 0 | 0.0 | 1.0 | 0.00 | 0.00 | 0.00 | 93 | 1010.5 |
| 20260508110530 | 46 | 226 | 0.0 | 1.0 | 0.00 | 0.00 | 0.00 | 93 | 1010.3 |
| 20260508110039 | 46 | 0 | 0.0 | 0.0 | 0.00 | 0.00 | 0.00 | 93 | 1010.3 |
| 20260508105529 | 46 | 0 | 0.0 | 0.0 | 0.00 | 0.00 | 0.00 | 93 | 1010.1 |
| 20260508105027 | 46 | 0 | 0.0 | 0.0 | 0.00 | 0.00 | 0.00 | 93 | 1010.1 |
| 20260508104541 | 46 | 0 | 0.0 | 0.0 | 0.00 | 0.00 | 0.00 | 93 | 1010.2 |
| 20260508104026 | 46 | 0 | 0.0 | 0.0 | 0.00 | 0.00 | 0.00 | 93 | 1010.2 |
| 20260508103527 | 45 | 0 | 0.0 | 0.0 | 0.00 | 0.00 | 0.00 | 93 | 1010.2 |